Erzurum, Turkey

7:38 PM +03 on September 25, 2017 (GMT +0300)
Erzurum

Weather History for LTCE - August, 2014

Change the Weather History Date:

Sunday, August 24, 2014

  Actual Average Record
Temperature  
Mean Temperature 70 °F -  
Max Temperature 85 °F 74 °F 98 °F (1998)
Min Temperature 54 °F 46 °F 42 °F (1996)
Cooling Degree Days 4    
Growing Degree Days 20 (Base 50)    
Moisture  
Dew Point 44 °F    
Average Humidity 40    
Maximum Humidity 77    
Minimum Humidity 13    
Precipitation  
Precipitation 0.00 in 0.03 in - ()
Sea Level Pressure  
Sea Level Pressure 30.10 in    
Wind  
Wind Speed 10 mph ()    
Max Wind Speed 26 mph    
Max Gust Speed 38 mph    
Visibility 7.3 miles    
Events Thunderstorm    
Averages and records for this station are not official NWS values.
T = Trace of Precipitation, MM = Missing Value Source: Averaged Metar Reports

Daily Weather History Graph

Daily Weather History Graph

Search for Another Location

Airport or City:

Trip Planner

Search our weather history database for the weather conditions in past years. The results will help you decide how hot, cold, wet, or windy it might be!

Date:

Astronomy

Aug. 24, 2014 Rise Set
Actual Time 5:35 AM EEST 6:59 PM EEST
Civil Twilight 5:06 AM EEST 7:27 PM EEST
Nautical Twilight 4:32 AM EEST 8:01 PM EEST
Astronomical Twilight 3:57 AM EEST 8:37 PM EEST
Moon 4:25 AM EEST (8/24) 6:05 PM EEST (8/24)
Length of Visible Light 14h 20m
Length of Day
13h 24m
Waning Crescent, 1% of the Moon is Illuminated
Aug 24
Waning Crescent
Aug 25
New
Sep 2
First Quarter
Sep 9
Full
Sep 16
Last Quarter

Hourly Weather History & Observations

Time (EEST) Temp. Dew Point Humidity Pressure Visibility Wind Dir Wind Speed Gust Speed Precip Events Conditions
12:00 AM 67 °F 46 °F 36%  in 12 mi East 12.7 mph - -   Partly Cloudy
12:20 AM 66.2 °F 48.2 °F 52% 30.15 in 6.2 mi ENE 15.0 mph - N/A   Scattered Clouds
12:50 AM 64.4 °F 48.2 °F 56% 30.15 in 6.2 mi NE 12.7 mph - N/A   Scattered Clouds
1:20 AM 64.4 °F 48.2 °F 56% 30.15 in 6.2 mi East 13.8 mph - N/A   Scattered Clouds
1:50 AM 60.8 °F 48.2 °F 63% 30.12 in 6.2 mi NE 9.2 mph - N/A   Partly Cloudy
2:20 AM 62.6 °F 48.2 °F 59% 30.12 in 6.2 mi ENE 13.8 mph - N/A   Partly Cloudy
2:50 AM 57.2 °F 50.0 °F 77% 30.12 in 6.2 mi North 6.9 mph - N/A   Partly Cloudy
3:00 AM 58 °F 49 °F 63%  in 12 mi North 6.9 mph - -   Scattered Clouds
3:20 AM 57.2 °F 48.2 °F 72% 30.12 in 6.2 mi NE 5.8 mph - N/A   Partly Cloudy
3:50 AM 55.4 °F 48.2 °F 77% 30.12 in - NNE 6.9 mph - N/A   Clear
4:20 AM 57.2 °F 48.2 °F 72% 30.12 in - NE 4.6 mph - N/A   Clear
4:50 AM 57.2 °F 46.4 °F 67% 30.12 in - Variable 2.3 mph - N/A   Clear
5:20 AM 55.4 °F 46.4 °F 72% 30.12 in - SE 4.6 mph - N/A   Clear
5:50 AM 55.4 °F 46.4 °F 72% 30.12 in - Variable 3.5 mph - N/A   Clear
6:00 AM 56 °F 47 °F 63%  in 12 mi ESE 3.5 mph - -  
6:20 AM 55.4 °F 46.4 °F 72% 30.15 in - Calm Calm - N/A   Clear
6:50 AM 57.2 °F 48.2 °F 72% 30.15 in - Variable 2.3 mph - N/A   Clear
7:20 AM 64.4 °F 46.4 °F 52% 30.15 in - Variable 2.3 mph 15.0 mph N/A   Clear
7:50 AM 68.0 °F 46.4 °F 46% 30.12 in - East 15.0 mph - N/A   Clear
8:20 AM 69.8 °F 46.4 °F 43% 30.12 in - East 16.1 mph - N/A   Clear
8:50 AM 71.6 °F 44.6 °F 38% 30.12 in - East 20.7 mph - N/A   Clear
9:00 AM 71 °F 44 °F 27%  in 12 mi East 20.7 mph - -  
9:20 AM 71.6 °F 46.4 °F 41% 30.12 in - East 18.4 mph - N/A   Clear
9:50 AM 73.4 °F 44.6 °F 36% 30.12 in - East 20.7 mph - N/A   Clear
10:20 AM 75.2 °F 44.6 °F 34% 30.12 in - East 19.6 mph - N/A   Clear
10:50 AM 77.0 °F 46.4 °F 34% 30.12 in - East 15.0 mph - N/A   Clear
11:20 AM 78.8 °F 44.6 °F 30% 30.12 in 6.2 mi East 13.8 mph - N/A   Partly Cloudy
11:50 AM 80.6 °F 44.6 °F 28% 30.09 in 6.2 mi East 13.8 mph - N/A   Partly Cloudy
12:00 PM 80 °F 45 °F 19%  in 12 mi East 13.8 mph - -   Scattered Clouds
12:20 PM 82.4 °F 42.8 °F 25% 30.09 in 6.2 mi East 11.5 mph - N/A   Partly Cloudy
12:50 PM 82.4 °F 42.8 °F 25% 30.09 in 6.2 mi East 12.7 mph - N/A   Scattered Clouds
1:20 PM 84.2 °F 42.8 °F 23% 30.09 in 6.2 mi East 11.5 mph - N/A   Scattered Clouds
1:50 PM 84.2 °F 41.0 °F 22% 30.06 in 6.2 mi East 12.7 mph - N/A   Scattered Clouds
2:20 PM 82.4 °F 41.0 °F 23% 30.06 in 6.2 mi East 13.8 mph - N/A   Scattered Clouds
2:50 PM 86.0 °F 44.6 °F 23% 30.06 in 6.2 mi ENE 13.8 mph - N/A   Scattered Clouds
3:00 PM 85 °F 41 °F 13%  in 12 mi ENE 13.8 mph - -   Mostly Cloudy
3:00 PM 82.4 °F 41.0 °F 23% 30.06 in 6.2 mi ENE 11.5 mph - N/A Thunderstorm Thunderstorm
3:20 PM 82.4 °F 41.0 °F 23% 30.06 in 6.2 mi East 6.9 mph - N/A Thunderstorm Thunderstorm
3:50 PM 82.4 °F 41.0 °F 23% 30.06 in 6.2 mi East 6.9 mph - N/A   Scattered Clouds
4:20 PM 86.0 °F 37.4 °F 18% 30.04 in 6.2 mi ENE 6.9 mph - N/A   Scattered Clouds
4:50 PM 86.0 °F 35.6 °F 17% 30.04 in 6.2 mi NE 4.6 mph - N/A   Scattered Clouds
5:20 PM 84.2 °F 37.4 °F 19% 30.04 in 6.2 mi NE 3.5 mph - N/A   Scattered Clouds
5:50 PM 80.6 °F 42.8 °F 26% 30.04 in 6.2 mi Variable 2.3 mph - N/A   Scattered Clouds
6:00 PM 81 °F 42 °F 16%  in 12 mi ENE 2.3 mph - -   Partly Cloudy
6:20 PM 78.8 °F 41.0 °F 26% 30.04 in 6.2 mi Calm Calm - N/A   Scattered Clouds
6:50 PM 80.6 °F 35.6 °F 20% 30.04 in 6.2 mi NNW 5.8 mph - N/A   Mostly Cloudy
7:20 PM 80.6 °F 35.6 °F 20% 30.06 in 6.2 mi WSW 5.8 mph - N/A   Mostly Cloudy
7:50 PM 75.2 °F 41.0 °F 29% 30.06 in 6.2 mi ESE 6.9 mph - N/A   Scattered Clouds
8:20 PM 73.4 °F 44.6 °F 36% 30.06 in 6.2 mi NE 8.1 mph - N/A   Scattered Clouds
8:50 PM 71.6 °F 42.8 °F 35% 30.09 in 6.2 mi NNE 3.5 mph - N/A   Partly Cloudy
9:00 PM 72 °F 40 °F 21%  in 12 mi NNE 1.2 mph - -   Partly Cloudy
9:20 PM 73.4 °F 42.8 °F 33% 30.09 in 6.2 mi ENE 12.7 mph - N/A   Partly Cloudy
9:50 PM 71.6 °F 44.6 °F 38% 30.09 in 6.2 mi ENE 26.5 mph 38.0 mph N/A   Partly Cloudy
10:20 PM 71.6 °F 46.4 °F 41% 30.12 in 6.2 mi ENE 24.2 mph - N/A   Partly Cloudy
10:50 PM 69.8 °F 46.4 °F 43% 30.12 in 6.2 mi ENE 19.6 mph - N/A   Partly Cloudy
11:20 PM 69.8 °F 46.4 °F 43% 30.12 in 6.2 mi ENE 20.7 mph - N/A   Partly Cloudy
11:50 PM 69.8 °F 46.4 °F 43% 30.15 in 6.2 mi East 16.1 mph - N/A   Partly Cloudy